CZ-6A DEB, 54334

Orbit data source: Space-Track

CZ-6A DEB, 54334 is space debris in SSO originally from a launch on Fri, 11 Nov 2022 UTC launched from the Taiyaun Space Center, China (TSC). Debris objects in space refer to the collection of defunct objects orbiting the Earth. Examples of debris include non-operational satellites, rocket bodies, and fragments generated from explosions, collisions, or faulty payload assembly.

Loading next visibility...
Identifier
54334, 2022-151CD
Orbit
SSO
Country
Flag of CNCN / PRC
Related business
Manufacturer
SAST
Mission
Spacecraft
Bus & Motor
Unknown
Mass
Unknown
Launch date (UTC)
2022-11-11 (3 years ago)
Launch vehicle
Unknown
Launch site
Taiyaun Space Center, China (TSC)
Object type
Payload
Rocket body
Debris
Shape & HBR
Unknown shape, 0.1 m
Radar Cross Section
Small (<0.1 m²)

Expand to show TLE details & history
Last TLE update: 16 hours ago

TLE from 16 hours ago
0 CZ-6A DEB
1 54334U 22151CD  26130.20183592  .00041260  00000-0  21636-2 0  9995
2 54334  98.6242 223.6805 0032296 299.5412  60.2598 15.15183233186054
Epoch: 2026-05-10T04:50Z
TLE epoch observation values (Epoch: 2026-05-10T04:50:38.623Z)
Latitude
-0.00004°
Longitude
-76.98873°
Altitude
512.468 km
Speed
7.614 km/s
True Right ascension
14h 54m 43s
True Declination
0° 00' 00"
Sunlit
Object was in full shadow at epoch
Visualization orbit readout
Latitude
Unknown
Longitude
Unknown
Altitude
Unknown
Speed
Unknown
Apparent Right ascension
Unknown
Apparent Declination
Unknown
Sunlit
N/A
Visualization observer readout
Local Sidereal Time
05:29:18
Azimuth
Unknown
Elevation
Unknown
Doppler factor
Unknown
Orbital elements
Apogee altitude
539.721 km
Perigee altitude
495.181 km
Semi-major axis
6,895.588 km
Eccentricity
0.00323
Inclination
98.6242°
RAAN
223.6805°
Arg. of periapsis
299.5412°
True anomaly
60.58178°
Mean anomaly
60.2598°
Eccentric anomaly
60.42073°
Mean motion
3.79041 °/min
Orbital period
94.98 mins
BSTAR
0.0021636
Loading maneuver chart data...
Computing Atmospheric mass density...
Loading historical data...
Loading historical data...
Loading historical data...
Loading historical data...
Loading historical data...
Loading historical data...
Loading historical data...

Documentation

Showing up to 5 results
|